User: anonymous   Login
Location: Unspecified
(0.0000°N, 0.0000°E)
Time: 22:13:31
(UTC+00:00)
Language:

Aussat K2 - Orbit

View from above orbital plane
View from above orbital plane
View from above satellite
View from above satellite

Ground track
Ground track

The orbit data is extracted from the following two-line orbital elements,

1 16275U 85109C   19143.56663002 -.00000079 +00000-0 +00000-0 0  9997
2 16275 015.1204 001.3386 0005587 315.7442 023.4600 00.99934721020728
Epoch (UTC): 23 May 2019 13:35:56
Eccentricity: 0.0005587
inclination: 15.1204°
perigee height: 35857 km
apogee height: 35904 km
right ascension of ascending node: 1.3386°
argument of perigee: 315.7442°
revolutions per day: 0.99934721
mean anomaly at epoch: 23.4600°
orbit number at epoch: 2072

The dashed part of the orbit path shows where the satellite is in the earth's shadow,  

DLR